Location: ??????
(41.3794°N, 22.5014°E)
Time: 20:35:33
(UTC+00:00)

Cosmos 1238 Rocket - Pass Details

Date: 30 November 2020
Orbit: 376 x 1024 km, 83.0° (Epoch: 19 January)

Event Time Altitude Azimuth Distance (km) Brightness Sun altitude
Enters shadow 16:38:11 - 2° (N) 2,661 6.2 -17.7°
Exits shadow 16:45:31 31° 119° (ESE) 1,162 4.0 -19.0°
Drops below altitude 10° 16:48:41 10° 149° (SSE) 2,211 5.7 -19.6°
Sets 16:51:23 0° 157° (SSE) 3,249 6.6 -20.1°
